www.pogodaiklimat.ru

Погода и климат >> Архив погоды >> Антарктида >> Cape Ross


ПОГОДА в Cape Ross

  • Прогноз погоды в Cape Ross
  • Монитор погоды в Cape Ross
  • Климат города

АРХИВ ПОГОДЫ в Cape Ross

Время (UTC), дата Ветер
(напр.,м/с)
 
Видим.   Явления Облачность Т
(С)
Тd
(С)
f
(%)
Тe
(С)
Тes
(С)
Комфортность P
(гПа)
Po
(гПа)
Тmin
(С)
Tmax
(С)
R
(мм)
R24
(мм)
S
(см)
22 13.11 Ю 4 н/о н/о -8.5 958.1
23 13.11 Ю 5 н/о н/о -8.4 958.4
00 14.11 Ю 6 н/о н/о -8.3 958.5
01 14.11 Ю 6 н/о н/о -8.1 958.7
02 14.11 Ю 7 н/о н/о -7.7 958.8
03 14.11 Ю 7 н/о н/о -8.1 958.9
04 14.11 Ю 6 н/о н/о -8.0 959.1
05 14.11 Ю 7 н/о н/о -8.0 959.0
07 14.11 Ю 5 н/о н/о -8.0 959.5
08 14.11 ЮВ 3 н/о н/о -8.5 959.6
09 14.11 ЮВ 3 н/о н/о -8.6 959.6
10 14.11 ЮВ 2 н/о н/о -8.7 959.7
11 14.11 Ю 3 н/о н/о -8.9 959.7
13 14.11 Ю 4 н/о н/о -9.4 959.6
14 14.11 Ю 5 н/о н/о -9.4 959.2
15 14.11 Ю 5 н/о н/о -9.5 959.4
16 14.11 Ю 4 н/о н/о -9.7 959.3
17 14.11 Ю 3 н/о н/о -9.7 959.4
18 14.11 ЮЗ 1 н/о н/о -9.5 959.5
19 14.11 Ю 2 н/о н/о -9.5 959.5
21 14.11 С 1 н/о н/о -9.4 959.7
23 14.11 В 1 н/о н/о -7.8 960.0
22 14.11 З 1 н/о н/о -8.4 959.7
00 15.11 ЮВ 1 н/о н/о -7.8 960.0
01 15.11 В 2 н/о н/о -7.8 959.8
02 15.11 ЮВ 1 н/о н/о -7.7 959.8
03 15.11 В 1 н/о н/о -7.9 959.9
05 15.11 С 2 н/о н/о -8.6 959.6
04 15.11 С 1 н/о н/о -8.2 959.8
06 15.11 СЗ 2 н/о н/о -9.0 959.6
07 15.11 СЗ 1 н/о н/о -8.5 959.5
08 15.11 С 1 н/о н/о -9.0 959.5
09 15.11 0 н/о н/о -9.2 959.6
11 15.11 0 н/о н/о -9.7 959.8
10 15.11 0 н/о н/о -9.0 959.7
12 15.11 0 н/о н/о -9.2 959.7
13 15.11 0 н/о н/о -8.6 959.7
14 15.11 Ю 2 н/о н/о -10.1 959.6
15 15.11 0 н/о н/о -10.5 959.7
17 15.11 Ю 4 н/о н/о -11.3 959.8
16 15.11 Ю 4 н/о н/о -10.7 959.7
18 15.11 Ю 2 н/о н/о -10.8 960.2
19 15.11 Ю 3 н/о н/о -10.4 960.4
20 15.11 Ю 2 н/о н/о -10.6 960.6
21 15.11 Ю 3 н/о н/о -10.4 960.7
23 15.11 З 1 н/о н/о -9.8 960.8
22 15.11 С 1 н/о н/о -9.8 960.9
00 16.11 З 1 н/о н/о -8.7 961.0
01 16.11 В 1 н/о н/о -8.2 961.0
02 16.11 С 2 н/о н/о -8.6 961.2
03 16.11 СЗ 4 н/о н/о -9.5 961.2
05 16.11 СЗ 4 н/о н/о -9.0 961.0
04 16.11 СЗ 3 н/о н/о -8.0 961.0
06 16.11 СЗ 3 н/о н/о -8.0 961.0
07 16.11 СЗ 2 н/о н/о -9.7 961.2
08 16.11 СЗ 2 н/о н/о -9.3 961.3
09 16.11 СЗ 3 н/о н/о -10.0 961.4
11 16.11 СЗ 2 н/о н/о -10.0 961.4
10 16.11 СЗ 4 н/о н/о -9.7 961.4
12 16.11 СЗ 2 н/о н/о -9.7 961.6
14 16.11 СЗ 3 н/о н/о -10.9 961.7
15 16.11 СЗ 3 н/о н/о -10.9 961.6
16 16.11 СЗ 3 н/о н/о -10.2 961.7
17 16.11 СЗ 2 н/о н/о -9.9 962.0
18 16.11 С 2 н/о н/о -10.4 962.3
19 16.11 С 1 н/о н/о -10.0 962.3
20 16.11 С 1 н/о н/о -10.7 962.6
21 16.11 С 1 н/о н/о -10.7 962.7
22 16.11 С 1 н/о н/о -10.3 963.3
23 16.11 0 н/о н/о -7.8 963.5
00 17.11 С 1 н/о н/о -10.0 963.6
01 17.11 СЗ 2 н/о н/о -8.5 963.9
02 17.11 СЗ 2 н/о н/о -9.6 964.1
03 17.11 СЗ 2 н/о н/о -9.3 964.4
04 17.11 СЗ 2 н/о н/о -9.2 964.7
05 17.11 СЗ 2 н/о н/о -9.2 965.2
06 17.11 СЗ 2 н/о н/о -9.2 965.2
08 17.11 СЗ 2 н/о н/о -9.6 965.9
09 17.11 СЗ 2 н/о н/о -9.4 966.2
10 17.11 СЗ 1 н/о н/о -9.4 966.9
11 17.11 СЗ 1 н/о н/о -9.4 966.9
12 17.11 З 1 н/о н/о -9.8 967.2
14 17.11 СВ 0 н/о н/о -9.5 967.8
13 17.11 З 1 н/о н/о -9.7 967.5
15 17.11 0 н/о н/о -9.4 968.0
16 17.11 ЮВ 1 н/о н/о -10.2 968.6
17 17.11 ЮВ 1 н/о н/о -10.2 968.6
18 17.11 ЮВ 1 н/о н/о -9.7 968.8
20 17.11 СЗ 1 н/о н/о -10.6 969.3
19 17.11 СЗ 1 н/о н/о -11.3 969.1
21 17.11 З 1 н/о н/о -10.4 969.6
22 17.11 СЗ 2 н/о н/о -9.2 970.1
23 17.11 СЗ 2 н/о н/о -9.2 970.1
00 18.11 СЗ 2 н/о н/о -10.3 970.5
01 18.11 СЗ 2 н/о н/о -9.9 970.7
03 18.11 СЗ 3 н/о н/о -9.7 970.9
04 18.11 СЗ 3 н/о н/о -9.7 970.9
05 18.11 СЗ 4 н/о н/о -11.3 971.0
06 18.11 СЗ 5 н/о н/о -10.7 971.0
07 18.11 СЗ 4 н/о н/о -11.7 971.1
08 18.11 СЗ 4 н/о н/о -12.1 971.0
09 18.11 СЗ 3 н/о н/о -11.1 970.9
10 18.11 З 2 н/о н/о -10.7 971.0
11 18.11 Ю 3 н/о н/о -8.9 970.9
12 18.11 СЗ 5 н/о н/о -9.1 970.3
13 18.11 ЮЗ 15 н/о н/о -9.7 969.6
14 18.11 ЮЗ 20 н/о н/о -10.8 968.6
15 18.11 ЮЗ 17 н/о н/о -10.4 969.0
16 18.11 ЮЗ 17 н/о н/о -10.4 968.2
17 18.11 ЮЗ 19 н/о н/о -10.4 967.8
18 18.11 ЮЗ 17 н/о н/о -10.2 968.0
19 18.11 Ю 9 н/о н/о -9.3 968.3
20 18.11 Ю 7 н/о н/о -9.5 968.4
21 18.11 ЮВ 6 н/о н/о -9.0 968.4
22 18.11 Ю 3 н/о н/о -8.4 968.4
23 18.11 Ю 2 н/о н/о -8.0 968.1
00 19.11 ЮВ 2 н/о н/о -8.2 967.4
01 19.11 В 2 н/о н/о -7.5 966.3
02 19.11 В 2 н/о н/о -7.5 966.3
03 19.11 СЗ 3 н/о н/о -8.2 964.6
04 19.11 СЗ 3 н/о н/о -8.2 964.6
05 19.11 С 4 н/о н/о -8.3 963.9
06 19.11 СЗ 3 н/о н/о -8.9 963.1
07 19.11 С 3 н/о н/о -8.9 962.3
08 19.11 СЗ 7 н/о н/о -9.3 960.7
09 19.11 СЗ 7 н/о н/о -9.3 960.7
10 19.11 СЗ 6 н/о н/о -10.3 960.1
11 19.11 СЗ 4 н/о н/о -9.9 959.4
12 19.11 СВ 13 н/о н/о -8.6 958.8
13 19.11 Ю 2 н/о н/о -10.4 958.0
14 19.11 ЮЗ 12 н/о н/о -9.8 956.8
15 19.11 ЮЗ 16 н/о н/о -10.1 955.5
16 19.11 ЮЗ 16 н/о н/о -10.5 954.9
17 19.11 ЮЗ 13 н/о н/о -10.1 954.6
18 19.11 ЮЗ 13 н/о н/о -10.0 954.1
19 19.11 ЮЗ 12 н/о н/о -9.5 953.7
20 19.11 ЮЗ 12 н/о н/о -9.3 953.1
21 19.11 Ю 5 н/о н/о -7.7 953.2
22 19.11 Ю 3 н/о н/о -7.8 953.2
23 19.11 СЗ 1 н/о н/о -7.0 953.0
00 20.11 ЮВ 1 н/о н/о -6.9 952.8
01 20.11 Ю 6 н/о н/о -8.5 952.7
02 20.11 Ю 9 н/о н/о -9.0 952.3
03 20.11 ЮВ 7 н/о н/о -9.2 952.4
04 20.11 ЮВ 7 н/о н/о -9.5 952.7
05 20.11 Ю 8 н/о н/о -9.2 952.5
06 20.11 Ю 8 н/о н/о -9.2 952.7
07 20.11 Ю 8 н/о н/о -9.6 953.0
08 20.11 Ю 8 н/о н/о -9.9 953.1
09 20.11 Ю 7 н/о н/о -10.3 953.4
10 20.11 Ю 7 н/о н/о -10.3 953.5
11 20.11 Ю 7 н/о н/о -10.6 953.7
12 20.11 Ю 7 н/о н/о -10.8 953.7
13 20.11 ЮЗ 7 н/о н/о -11.4 954.0
14 20.11 Ю 8 н/о н/о -11.3 954.1
15 20.11 Ю 9 н/о н/о -12.2 954.1
16 20.11 Ю 9 н/о н/о -12.0 954.4
17 20.11 Ю 8 н/о н/о -12.2 954.8
18 20.11 Ю 9 н/о н/о -11.9
19 20.11 Ю 10 н/о н/о -12.5 955.4
20 20.11 Ю 9 н/о н/о -11.6 956.2
21 20.11 Ю 9 н/о н/о -11.4 956.7
22 20.11 Ю 8 н/о н/о -10.9 957.2

 

Местоположение метеостанции Cape Ross (Антарктида): широта -76.71 долгота 162.96 высота над уровнем моря 149 м.

В архиве по умолчанию представлена погода в Cape Ross за последнюю неделю. Архивные данные за месяц целиком и за предыдущие месяцы, начиная с января 2011 года, Вы можете получить, выбрав интересующий диапазон дат из раскрывающегося списка и нажав кнопку "Ввод!".


*Определитесь, кто Вы:
робот инопланетянин человек

Внимание! Время в таблицах - всемирное. Для получения местного времени необходимо прибавить поправку, которая в Cape Ross равна 0 ч.

Смотрите также архив погоды в соседних городах и на ближайших метеорологических станциях:

Погода в Marble Point (Антарктида) (82 км)
Погода в McMurdo (Антарктида) (156 км)
Погода в Pegasus North (Антарктида) (163 км)
Погода в Manuela (Антарктида) (198 км)
Погода в Minna Bluff (Антарктида) (223 км)
Погода в Baia Terra Nova (Антарктида) (226 км)
Погода в Ferrell (Антарктида) (232 км)
Погода в Linda (Антарктида) (233 км)
Погода в Jang Bogo (Антарктида) (235 км)
Погода в Priestley Glacier (Антарктида) (349 км)

Пояснения к столбцам:

Ветер - указаны скорость ветра в м/с - средняя за 10 мин, порывы в срок и между сроками (в фигурных скобках) и направление, откуда дует ветер: С - северный, СВ - северо-восточный, В - восточный, ЮВ - юго-восточный, Ю - южный, ЮЗ - юго-западный, З - западный, СЗ - северо-западный.
Видимость - горизонтальная дальность видимости в метрах или километрах. При видимости от 1 до 10 км при отсутствии осадков обычно наблюдается дымка, при ухудшении видимости до 1 км и менее - туман. В сухую погоду видимость может ухудшаться дымом, пылью или мглою.
Явления - указаны атмосферные явления, наблюдавшиеся в срок или в последний час перед сроком; фигурными скобками обозначены явления, наблюдавшиеся между сроками (за 1-3 часа до срока); квадратными скобками обозначены град или гололедные отложения с указанием их диаметра в мм.
Облачность - указаны через наклонную черту общая и нижняя облачность в баллах и высота нижней границы облаков в метрах; квадратными скобками обозначены формы облаков: Ci - перистые, Cs - перисто-слоистые, Cc - перисто-кучевые, Ac - высококучевые, As - высокослоистые, Sc - слоисто-кучевые, Ns - слоисто-дождевые, Cu - кучевые, Cb - кучево-дождевые. Подробнее классификацию облаков см. в Атласе облаков (PDF).
T - Температура воздуха - температура, измеренная на высоте 2 м над землей.
Td - Температура точки росы - температура, при понижении до которой содержащийся в воздухе водяной пар достигнет насыщения.
f - Относительная влажность воздуха - влажноcть воздуха, измеренная на высоте 2 м над землей.
Te - Эффективная температура - температура, которую ощущает одетый по сезону человек в тени. Характеристика душности погоды. При расчете учитывается влияние влажности воздуха и скорости ветра на теплоощущения человека.
Tes - Эффективная температура на солнце - температура, которую ощущает человек, с поправкой на солнечный нагрев. Характеристика знойности погоды. Зависит от высоты солнца над горизонтом, облачности и скорости ветра. Ночью, в пасмурную погоду, а также при ветре 12 м/с и более поправка равна нулю.
P - Атмосферное давление - приведенное к уровню моря атмосферное давление.
Po - Атмосферное давление - измеренное на уровне метеостанции атмосферное давление.
Tmin - Минимальная температура - минимум температуры воздуха на высоте 2 м над землей.
Tmax - Максимальная температура - максимум температуры воздуха на высоте 2 м над землей.
R - Количество осадков - Количество выпавших осадков за период времени, мм. При наведении курсора мыши на число - период времени, за который выпало указанное количество осадков.
R24 - Количество осадков - Количество выпавших осадков за 24 часа, мм.
S - Снежный покров - Высота снежного покрова, см. При наведении курсора мыши на число - состояние снежного покрова и степень покрытия местности в баллах.